SCP
0 0 0 0 0 0 0 0 0 0 0 0 0 0 0 0 0 0 0 0 0 0 0 0 0 0 0 0 0 0 0 0 0
0 0 0 0 0 0 0 0 0 0 0 0 0 0 0 -0 0 0 0 0 0 0 0 0 0 0 0 0 0 0 0 0 0
0 0 0 0 0 0 0 0 0 0 0 0 0 0 0 0 0 0 0 0 0 0 0 0 0 0 0 0 0 0 0 0 0
0 0 0 0 -0 0 0 0 0 0 0 0 0 0 0 0 0 0 0 0 0 0 0 0 0 0 0 0 0 0 0 0 0
0 0 0 0 0 0 0 0 0 0 0 0 0 0 0 0 0 0 0 0 0 0 0 0 0 0 0 0 0 0 0 0 0
0 0 0 0 0 0 0 0 0 0 0 0 0 0 0 0 0 0 0 0 0 0 0 0 0 0 0 0 0 0 0 0 0
0 0 0 0 0 0 0 0 0 0 0 0 0 0 0 0 0 0 0 0 0 0 0 0 0 0 0 0 0 0 0 0 0
0 0 0 0 0 0 0 0 0 0 0 0 0 0 0 0 0 0 0 0 0 0 0 0 0 0 0 0 0 0 0 0 0
0 0 0 0 0 0 0 0 0 0 0 0 0 0 0 0 0 0 0 0 0 0 0 0 0 0 0 0 0 0 0 0 0
0 0 0 0 0 0 0 0 0 0 0 0 0 0 0 0 0 0 0 0 0 0 0 0 0 0 0 0 0 0 0 0 0
0 0 0 0 0 0 0 0 0 0 0 0 0 0 0 0 0 0 0 0 0 0 0 0 0 0 0 0 0 0 0 0 0
0 0 0 0 0 0 0 0 0 0 0 0 0 0 0 0 0 0 0 0 0 0 0 0 0 0 0 0 0 0 0 0 0
0 0 0 0 0 0 0 0 0 0 0 0 0 0 0 0 0 0 0 0 0 0 0 0 0 0 0 0 0 0 0 0 0
0 0 0 0 0 0 0 0 0 0 0 0 0 0 0 0 0 0 0 0 0 0 0 0 0 0 0 0 0 0 0 0 0
0 0 0 0 0 0 0 0 0 0 0 0 0 0 0 0 0 0 0 0 0 0 0 0 0 0 0 0 0 0 0 0 0
0 0 0 0 0 0 0 0 0 0 0 0 0 0 0 0 0 0 0 0 0 0 0 0 0 0 0 0 0 0 0 0 0
0 0 0 0 0 0 0 0 0 0 0 0 0 0 0 0 0 0 0 0 0 0 0 0 0 0 0 0 0 0 0 0 0
0 0 0 0 0 0 0 0 0 0 0 0 0 0 0 0 0 0 0 0 0 0 0 0 0 0 0 0 0 0 0 0 0
0 0 0 0 0 0 0 0 0 0 0 0 0 0 0 0 0 0 0 0 0 0 0 0 0 0 0 0 0 0 0 0 0
0 0 0 0 0 0 0 0 0 0 0 0 0 0 0 0 0 0 0 0 0 0 0 0 0 0 0 0 0 0 0 0 0
Wind_Speed_500mb
22 24 28 30 30 30 30 33 35 35 32 30 30 30 31 42 25 23 21 14 13 17 20 23 23 24 23 22 22 26 27 25 15
23 24 27 27 28 29 29 29 29 29 30 30 29 28 31 43 33 19 22 18 13 21 21 24 25 26 27 26 23 24 32 34 31
19 22 24 26 28 27 27 28 29 29 28 29 28 28 28 35 27 26 18 17 22 21 23 26 27 27 27 28 29 27 26 31 41
20 18 23 26 25 26 28 28 27 29 28 27 27 29 33 27 26 27 22 15 22 20 22 24 27 28 28 29 29 31 32 29 37
16 15 18 24 27 28 30 28 30 32 31 28 28 30 27 27 25 24 21 26 27 26 25 25 27 29 30 30 30 31 31 33 34
18 17 21 28 30 28 25 26 29 31 32 30 27 25 27 27 28 27 23 27 25 25 27 28 28 28 31 33 33 33 33 35 36
20 19 21 26 32 28 24 23 24 24 25 25 27 27 27 29 30 31 28 27 24 26 28 30 31 30 30 29 31 31 31 36 39
19 21 23 29 34 32 31 29 29 29 28 27 28 29 30 31 32 34 33 30 27 27 28 28 32 31 32 35 38 38 38 37 36
21 23 26 30 33 36 38 37 32 32 33 31 28 29 31 33 32 30 30 28 25 26 28 27 31 35 37 38 40 43 42 42 43
22 23 26 28 31 33 37 40 37 35 35 34 34 30 29 29 31 33 30 27 25 27 28 32 33 36 41 42 44 44 48 51 49
21 24 24 27 29 31 36 40 42 39 39 39 37 34 32 29 29 30 32 32 30 29 28 33 39 42 45 46 48 51 48 47 46
23 24 24 26 27 30 34 38 41 40 41 36 34 31 30 28 26 27 30 32 34 39 42 39 39 42 47 48 46 44 46 47 47
20 22 23 25 28 30 33 37 38 40 40 38 38 34 26 26 31 29 29 33 37 43 47 50 46 47 46 44 43 43 44 46 48
19 21 23 26 28 30 33 34 36 36 34 33 35 24 16 41 32 26 30 30 32 38 40 44 47 49 41 40 43 45 44 46 49
17 18 21 25 29 31 31 32 32 38 43 44 40 11 15 40 29 38 34 30 32 33 37 39 39 41 42 41 44 46 49 53 53
17 18 22 25 28 33 33 30 31 34 43 48 49 24 22 29 34 41 42 34 26 27 30 33 34 38 42 45 44 47 49 56 56
18 17 21 25 27 28 29 29 32 33 39 45 43 33 31 54 26 43 46 47 34 25 29 31 35 40 45 49 45 44 44 56 62
20 18 20 24 26 27 27 28 29 33 30 31 27 17 20 65 46 49 50 50 40 32 27 36 38 42 45 43 48 42 50 55 67
21 19 21 23 26 26 25 25 28 27 30 28 28 22 28 32 39 61 60 56 50 35 30 41 38 44 45 37 38 48 46 56 65
22 20 23 23 25 26 26 24 25 28 26 27 32 33 30 33 41 59 77 62 57 51 37 45 37 42 44 41 41 39 45 54 61
Wind_Direction_500mb
5 354 2 359 357 359 355 356 352 351 351 356 356 353 341 316 330 326 325 328 310 339 344 340 332 322 319 315 296 253 233 230 264
357 356 7 357 357 354 358 356 356 353 351 351 351 351 342 315 321 312 317 325 336 346 336 334 333 332 330 323 318 309 239 237 240
352 360 2 1 4 356 356 359 -0 356 346 352 351 348 332 319 322 320 315 320 346 343 334 332 333 330 328 324 322 320 308 255 246
346 356 11 10 5 1 357 1 355 354 355 352 351 345 329 333 325 322 328 326 340 335 325 322 323 322 323 322 315 315 313 304 251
354 8 23 8 358 351 350 353 351 346 344 341 334 330 332 326 323 319 322 346 338 334 326 321 316 315 316 315 310 308 304 305 297
13 9 5 4 2 354 350 347 343 340 342 339 334 328 323 324 326 324 321 334 333 328 324 320 320 317 315 315 313 310 305 300 299
12 6 6 6 2 5 358 347 341 337 335 331 329 327 322 317 318 320 318 322 330 325 318 315 317 319 307 306 305 302 301 301 296
5 9 7 10 13 14 6 356 349 342 336 331 327 327 327 322 316 315 317 319 325 319 318 315 310 308 312 307 309 307 303 296 291
3 8 10 9 12 13 11 1 353 352 349 341 330 326 321 321 323 325 330 326 335 325 322 313 315 311 311 312 306 303 301 299 297
1 4 5 4 8 8 8 8 4 359 355 350 342 331 318 315 314 315 321 323 333 333 321 318 312 312 310 308 304 300 297 297 291
0 5 1 -0 6 5 6 5 9 6 2 357 349 340 328 318 312 307 308 308 307 318 327 316 315 313 312 311 304 301 298 297 294
360 360 357 356 1 359 359 3 3 359 3 2 355 345 333 332 318 312 303 302 305 305 309 321 319 314 312 312 309 304 302 298 295
352 350 351 353 354 355 357 354 356 356 352 355 353 344 344 337 328 325 310 308 308 303 305 310 315 317 315 315 314 309 304 301 299
343 347 348 349 350 350 351 354 356 356 354 354 353 342 22 5 355 333 318 309 310 315 314 310 312 314 317 312 310 312 310 307 299
331 339 345 352 354 348 348 353 357 354 353 356 6 13 342 12 8 4 350 322 318 319 321 321 318 324 320 312 308 312 312 313 303
322 330 342 351 352 352 350 349 351 355 354 357 4 7 356 352 10 6 4 359 344 331 329 331 328 333 336 324 309 311 312 315 310
314 326 337 345 347 347 353 347 348 0 3 1 4 350 356 337 349 2 358 357 351 345 343 338 338 341 340 338 329 326 333 322 315
302 317 326 334 339 341 349 350 346 346 0 5 8 347 329 338 335 358 4 356 2 -0 355 353 345 340 341 343 342 343 336 330 324
294 307 312 325 331 334 335 338 350 341 347 350 356 340 329 333 326 335 349 355 359 4 360 351 340 345 344 348 344 348 333 327 338
292 300 304 316 323 326 331 324 321 336 332 336 339 338 333 330 324 325 339 345 352 352 351 352 346 345 347 342 349 335 350 340 339
Wind_Speed_850mb
22 24 28 30 30 30 30 33 35 35 32 30 30 30 31 42 25 23 21 14 13 17 20 23 23 24 23 22 22 26 27 25 15
23 24 27 27 28 29 29 29 29 29 30 30 29 28 31 43 33 19 22 18 13 21 21 24 25 26 27 26 23 24 32 34 31
19 22 24 26 28 27 27 28 29 29 28 29 28 28 28 35 27 26 18 17 22 21 23 26 27 27 27 28 29 27 26 31 41
20 18 23 26 25 26 28 28 27 29 28 27 27 29 33 27 26 27 22 15 22 20 22 24 27 28 28 29 29 31 32 29 37
16 15 18 24 27 28 30 28 30 32 31 28 28 30 27 27 25 24 21 26 27 26 25 25 27 29 30 30 30 31 31 33 34
18 17 21 28 30 28 25 26 29 31 32 30 27 25 27 27 28 27 23 27 25 25 27 28 28 28 31 33 33 33 33 35 36
20 19 21 26 32 28 24 23 24 24 25 25 27 27 27 29 30 31 28 27 24 26 28 30 31 30 30 29 31 31 31 36 39
19 21 23 29 34 32 31 29 29 29 28 27 28 29 30 31 32 34 33 30 27 27 28 28 32 31 32 35 38 38 38 37 36
21 23 26 30 33 36 38 37 32 32 33 31 28 29 31 33 32 30 30 28 25 26 28 27 31 35 37 38 40 43 42 42 43
22 23 26 28 31 33 37 40 37 35 35 34 34 30 29 29 31 33 30 27 25 27 28 32 33 36 41 42 44 44 48 51 49
21 24 24 27 29 31 36 40 42 39 39 39 37 34 32 29 29 30 32 32 30 29 28 33 39 42 45 46 48 51 48 47 46
23 24 24 26 27 30 34 38 41 40 41 36 34 31 30 28 26 27 30 32 34 39 42 39 39 42 47 48 46 44 46 47 47
20 22 23 25 28 30 33 37 38 40 40 38 38 34 26 26 31 29 29 33 37 43 47 50 46 47 46 44 43 43 44 46 48
19 21 23 26 28 30 33 34 36 36 34 33 35 24 16 41 32 26 30 30 32 38 40 44 47 49 41 40 43 45 44 46 49
17 18 21 25 29 31 31 32 32 38 43 44 40 11 15 40 29 38 34 30 32 33 37 39 39 41 42 41 44 46 49 53 53
17 18 22 25 28 33 33 30 31 34 43 48 49 24 22 29 34 41 42 34 26 27 30 33 34 38 42 45 44 47 49 56 56
18 17 21 25 27 28 29 29 32 33 39 45 43 33 31 54 26 43 46 47 34 25 29 31 35 40 45 49 45 44 44 56 62
20 18 20 24 26 27 27 28 29 33 30 31 27 17 20 65 46 49 50 50 40 32 27 36 38 42 45 43 48 42 50 55 67
21 19 21 23 26 26 25 25 28 27 30 28 28 22 28 32 39 61 60 56 50 35 30 41 38 44 45 37 38 48 46 56 65
22 20 23 23 25 26 26 24 25 28 26 27 32 33 30 33 41 59 77 62 57 51 37 45 37 42 44 41 41 39 45 54 61
Wind_Direction_850mb
5 354 2 359 357 359 355 356 352 351 351 356 356 353 341 316 330 326 325 328 310 339 344 340 332 322 319 315 296 253 233 230 264
357 356 7 357 357 354 358 356 356 353 351 351 351 351 342 315 321 312 317 325 336 346 336 334 333 332 330 323 318 309 239 237 240
352 360 2 1 4 356 356 359 -0 356 346 352 351 348 332 319 322 320 315 320 346 343 334 332 333 330 328 324 322 320 308 255 246
346 356 11 10 5 1 357 1 355 354 355 352 351 345 329 333 325 322 328 326 340 335 325 322 323 322 323 322 315 315 313 304 251
354 8 23 8 358 351 350 353 351 346 344 341 334 330 332 326 323 319 322 346 338 334 326 321 316 315 316 315 310 308 304 305 297
13 9 5 4 2 354 350 347 343 340 342 339 334 328 323 324 326 324 321 334 333 328 324 320 320 317 315 315 313 310 305 300 299
12 6 6 6 2 5 358 347 341 337 335 331 329 327 322 317 318 320 318 322 330 325 318 315 317 319 307 306 305 302 301 301 296
5 9 7 10 13 14 6 356 349 342 336 331 327 327 327 322 316 315 317 319 325 319 318 315 310 308 312 307 309 307 303 296 291
3 8 10 9 12 13 11 1 353 352 349 341 330 326 321 321 323 325 330 326 335 325 322 313 315 311 311 312 306 303 301 299 297
1 4 5 4 8 8 8 8 4 359 355 350 342 331 318 315 314 315 321 323 333 333 321 318 312 312 310 308 304 300 297 297 291
0 5 1 -0 6 5 6 5 9 6 2 357 349 340 328 318 312 307 308 308 307 318 327 316 315 313 312 311 304 301 298 297 294
360 360 357 356 1 359 359 3 3 359 3 2 355 345 333 332 318 312 303 302 305 305 309 321 319 314 312 312 309 304 302 298 295
352 350 351 353 354 355 357 354 356 356 352 355 353 344 344 337 328 325 310 308 308 303 305 310 315 317 315 315 314 309 304 301 299
343 347 348 349 350 350 351 354 356 356 354 354 353 342 22 5 355 333 318 309 310 315 314 310 312 314 317 312 310 312 310 307 299
331 339 345 352 354 348 348 353 357 354 353 356 6 13 342 12 8 4 350 322 318 319 321 321 318 324 320 312 308 312 312 313 303
322 330 342 351 352 352 350 349 351 355 354 357 4 7 356 352 10 6 4 359 344 331 329 331 328 333 336 324 309 311 312 315 310
314 326 337 345 347 347 353 347 348 0 3 1 4 350 356 337 349 2 358 357 351 345 343 338 338 341 340 338 329 326 333 322 315
302 317 326 334 339 341 349 350 346 346 0 5 8 347 329 338 335 358 4 356 2 -0 355 353 345 340 341 343 342 343 336 330 324
294 307 312 325 331 334 335 338 350 341 347 350 356 340 329 333 326 335 349 355 359 4 360 351 340 345 344 348 344 348 333 327 338
292 300 304 316 323 326 331 324 321 336 332 336 339 338 333 330 324 325 339 345 352 352 351 352 346 345 347 342 349 335 350 340 339